Location: Courçay
(47.2523°N, 0.8761°E)
Time: 21:38:32
(UTC+00:00)

Nadezhda 4 Rocket - Pass Details

Date: 18 November 2025
Orbit: 948 x 991 km, 82.9° (Epoch: 10 December)

Event Time Altitude Azimuth Distance (km) Brightness Sun altitude
Rises 18:35:28 0° 348° (NNW) 3,704 7.1 -23.1°
Reaches altitude 10° 18:38:02 10° 345° (NNW) 2,746 6.5 -23.6°
Maximum altitude 18:44:12 60° 267° (W) 1,105 4.5 -24.6°
Drops below altitude 10° 18:50:16 10° 189° (S) 2,699 6.4 -25.6°
Sets 18:52:46 0° 186° (S) 3,635 7.1 -26.1°
